| time (UTC) | temp F | wind direction | speed MPH | gust MPH | rain 1hr in | rain 24hr in | rain mn in | humidity % | barometer mb |
| 20260902031629 | 76 | 249 | 0.0 | 2.0 | 0.00 | 0.00 | 0.00 | 92 | 1014.4 |
| 20260902030846 | 76 | 0 | 0.0 | 2.0 | 0.00 | 0.00 | 0.00 | 92 | 1014.3 |
| 20260902030630 | 76 | 0 | 0.0 | 2.0 | 0.00 | 0.00 | 0.00 | 92 | 1014.3 |
| 20260902025843 | 76 | 0 | 0.0 | 0.0 | 0.00 | 0.00 | 0.00 | 92 | 1014.2 |
| 20260902025629 | 76 | 0 | 0.0 | 1.0 | 0.00 | 0.00 | 0.00 | 92 | 1014.2 |
| 20260902024843 | 76 | 0 | 0.0 | 2.0 | 0.00 | 0.00 | 0.00 | 92 | 1014.2 |
| 20260902024629 | 76 | 164 | 0.0 | 2.0 | 0.00 | 0.00 | 0.00 | 92 | 1014.2 |
| 20260902023844 | 76 | 0 | 0.0 | 0.0 | 0.00 | 0.00 | 0.00 | 92 | 1014.3 |
| 20260902023629 | 76 | 0 | 0.0 | 0.0 | 0.00 | 0.00 | 0.00 | 92 | 1014.3 |
| 20260902022840 | 76 | 0 | 0.0 | 0.0 | 0.00 | 0.00 | 0.00 | 92 | 1014.2 |
| 20260902022629 | 77 | 0 | 0.0 | 0.0 | 0.00 | 0.00 | 0.00 | 92 | 1014.2 |
| 20260902021840 | 77 | 0 | 0.0 | 1.0 | 0.00 | 0.00 | 0.00 | 91 | 1014.2 |
| 20260902021629 | 77 | 0 | 0.0 | 1.0 | 0.00 | 0.00 | 0.00 | 91 | 1014.1 |
| 20260902020841 | 77 | 0 | 0.0 | 1.0 | 0.00 | 0.00 | 0.00 | 90 | 1014.2 |
| 20260902020630 | 78 | 0 | 0.0 | 1.0 | 0.00 | 0.00 | 0.00 | 90 | 1014.2 |
| 20260902015841 | 78 | 0 | 0.0 | 2.0 | 0.00 | 0.00 | 0.00 | 90 | 1014.3 |
| 20260902015630 | 78 | 0 | 0.0 | 2.0 | 0.00 | 0.00 | 0.00 | 90 | 1014.3 |
| 20260902014838 | 78 | 220 | 0.0 | 3.0 | 0.00 | 0.00 | 0.00 | 90 | 1014.4 |
| 20260902014630 | 78 | 0 | 0.0 | 3.0 | 0.00 | 0.00 | 0.00 | 90 | 1014.4 |
| 20260902013837 | 78 | 0 | 0.0 | 1.0 | 0.00 | 0.00 | 0.00 | 91 | 1014.4 |
| 20260902013630 | 78 | 0 | 0.0 | 1.0 | 0.00 | 0.00 | 0.00 | 91 | 1014.4 |
| 20260902012835 | 78 | 0 | 0.0 | 2.0 | 0.00 | 0.00 | 0.00 | 91 | 1014.4 |
| 20260902012630 | 78 | 0 | 0.0 | 2.0 | 0.00 | 0.00 | 0.00 | 91 | 1014.4 |
| 20260902012316 | 78 | 0 | 0.0 | 2.0 | 0.00 | 0.00 | 0.00 | 91 | 1014.4 |
| 20260902011631 | 78 | 0 | 0.0 | 2.0 | 0.00 | 0.00 | 0.00 | 91 | 1014.4 |
| 20260902010837 | 77 | 0 | 0.0 | 2.0 | 0.00 | 0.00 | 0.00 | 92 | 1014.3 |
| 20260902010636 | 77 | 0 | 0.0 | 2.0 | 0.00 | 0.00 | 0.00 | 93 | 1014.3 |
| 20260902005834 | 77 | 0 | 0.0 | 0.0 | 0.00 | 0.00 | 0.00 | 93 | 1014.2 |
| 20260902005634 | 77 | 0 | 0.0 | 0.0 | 0.00 | 0.00 | 0.00 | 93 | 1014.1 |
| 20260902004837 | 78 | 0 | 0.0 | 0.0 | 0.00 | 0.00 | 0.00 | 92 | 1014.0 |
| 20260902004630 | 78 | 0 | 0.0 | 0.0 | 0.00 | 0.00 | 0.00 | 91 | 1014.0 |
| 20260902004312 | 78 | 0 | 0.0 | 1.0 | 0.00 | 0.00 | 0.00 | 90 | 1013.9 |
| 20260902003629 | 78 | 0 | 0.0 | 1.0 | 0.00 | 0.00 | 0.00 | 90 | 1013.9 |
| 20260902003111 | 79 | 0 | 0.0 | 0.0 | 0.00 | 0.00 | 0.00 | 88 | 1013.8 |
| 20260902002904 | 79 | 0 | 0.0 | 0.0 | 0.00 | 0.00 | 0.00 | 89 | 1013.8 |
| 20260902001833 | 79 | 0 | 0.0 | 0.0 | 0.00 | 0.00 | 0.00 | 87 | 1013.8 |
| 20260902001630 | 80 | 0 | 0.0 | 0.0 | 0.00 | 0.00 | 0.00 | 87 | 1013.8 |
| 20260902000832 | 80 | 0 | 0.0 | 0.0 | 0.00 | 0.00 | 0.00 | 86 | 1013.9 |
| 20260902000629 | 80 | 0 | 0.0 | 0.0 | 0.00 | 0.00 | 0.00 | 86 | 1013.9 |
| 20260902000323 | 81 | 0 | 0.0 | 0.0 | 0.00 | 0.00 | 0.00 | 83 | 1013.9 |
| 20260901235630 | 82 | 0 | 0.0 | 0.0 | 0.00 | 0.00 | 0.00 | 83 | 1013.9 |
| 20260901235113 | 82 | 0 | 0.0 | 0.0 | 0.00 | 0.00 | 0.00 | 81 | 1014.0 |
| 20260901234905 | 82 | 0 | 0.0 | 0.0 | 0.00 | 0.00 | 0.00 | 82 | 1013.9 |
| 20260901233831 | 83 | 0 | 0.0 | 0.0 | 0.00 | 0.00 | 0.00 | 80 | 1014.0 |
| 20260901233629 | 83 | 0 | 0.0 | 0.0 | 0.00 | 0.00 | 0.00 | 80 | 1014.0 |
| 20260901232831 | 84 | 0 | 0.0 | 0.0 | 0.00 | 0.00 | 0.00 | 78 | 1014.1 |
| 20260901232628 | 84 | 0 | 0.0 | 0.0 | 0.00 | 0.00 | 0.00 | 78 | 1014.1 |
| 20260901231829 | 85 | 0 | 0.0 | 0.0 | 0.00 | 0.00 | 0.00 | 76 | 1014.1 |
| 20260901231629 | 85 | 0 | 0.0 | 0.0 | 0.00 | 0.00 | 0.00 | 76 | 1014.1 |
| 20260901231549 | 86 | 0 | 0.0 | 0.0 | 0.00 | 0.00 | 0.00 | 75 | 1014.1 |
| 20260901230905 | 86 | 0 | 0.0 | 0.0 | 0.00 | 0.00 | 0.00 | 74 | 1014.1 |
| 20260901225830 | 86 | 0 | 0.0 | 4.0 | 0.00 | 0.00 | 0.00 | 74 | 1014.0 |
| 20260901225630 | 86 | 0 | 0.0 | 4.0 | 0.00 | 0.00 | 0.00 | 73 | 1014.0 |
| 20260901224826 | 87 | 0 | 0.0 | 3.0 | 0.00 | 0.00 | 0.00 | 73 | 1014.0 |
| 20260901224629 | 87 | 244 | 0.0 | 3.0 | 0.00 | 0.00 | 0.00 | 74 | 1014.0 |
| 20260901223823 | 86 | 0 | 0.0 | 1.0 | 0.00 | 0.00 | 0.00 | 74 | 1013.9 |
| 20260901223628 | 86 | 0 | 0.0 | 1.0 | 0.00 | 0.00 | 0.00 | 74 | 1013.9 |
| 20260901223300 | 86 | 0 | 0.0 | 2.0 | 0.00 | 0.00 | 0.00 | 73 | 1014.0 |
| 20260901222628 | 86 | 0 | 0.0 | 2.0 | 0.00 | 0.00 | 0.00 | 73 | 1014.0 |
| 20260901222110 | 86 | 0 | 1.0 | 3.0 | 0.00 | 0.00 | 0.00 | 73 | 1013.9 |
| 20260901221904 | 86 | 0 | 1.0 | 3.0 | 0.00 | 0.00 | 0.00 | 73 | 1013.9 |
| 20260901220824 | 87 | 0 | 0.0 | 4.0 | 0.00 | 0.00 | 0.00 | 74 | 1013.8 |
| 20260901220629 | 86 | 0 | 0.0 | 4.0 | 0.00 | 0.00 | 0.00 | 75 | 1013.9 |
| 20260901220108 | 87 | 0 | 0.0 | 2.0 | 0.00 | 0.00 | 0.00 | 72 | 1013.8 |
| 20260901215904 | 87 | 0 | 0.0 | 2.0 | 0.00 | 0.00 | 0.00 | 74 | 1013.8 |
| 20260901214821 | 87 | 0 | 0.0 | 0.0 | 0.00 | 0.00 | 0.00 | 70 | 1013.8 |
| 20260901214630 | 87 | 0 | 0.0 | 2.0 | 0.00 | 0.00 | 0.00 | 71 | 1013.8 |
| 20260901213822 | 87 | 0 | 0.0 | 4.0 | 0.00 | 0.00 | 0.00 | 71 | 1013.8 |
| 20260901213630 | 87 | 0 | 0.0 | 4.0 | 0.00 | 0.00 | 0.00 | 72 | 1013.8 |
| 20260901212820 | 87 | 0 | 0.0 | 2.0 | 0.00 | 0.00 | 0.00 | 72 | 1013.9 |
| 20260901212630 | 87 | 0 | 0.0 | 2.0 | 0.00 | 0.00 | 0.00 | 73 | 1013.9 |
| 20260901211821 | 87 | 0 | 0.0 | 3.0 | 0.00 | 0.00 | 0.00 | 73 | 1013.9 |
| 20260901211630 | 87 | 0 | 0.0 | 3.0 | 0.00 | 0.00 | 0.00 | 72 | 1013.9 |
| 20260901210822 | 88 | 0 | 1.0 | 4.0 | 0.00 | 0.00 | 0.00 | 70 | 1013.9 |
| 20260901210733 | 88 | 0 | 0.0 | 2.0 | 0.00 | 0.00 | 0.00 | 70 | 1013.9 |
| 20260901210630 | 88 | 0 | 1.0 | 4.0 | 0.00 | 0.00 | 0.00 | 70 | 1013.9 |
| 20260901205629 | 89 | 0 | 0.0 | 2.0 | 0.00 | 0.00 | 0.00 | 71 | 1013.9 |
| 20260901205254 | 89 | 0 | 1.0 | 4.0 | 0.00 | 0.00 | 0.00 | 68 | 1013.9 |
| 20260901204629 | 89 | 0 | 1.0 | 4.0 | 0.00 | 0.00 | 0.00 | 67 | 1013.9 |
| 20260901203806 | 89 | 297 | 1.0 | 4.0 | 0.00 | 0.00 | 0.00 | 66 | 1013.9 |
| 20260901203629 | 89 | 242 | 1.0 | 4.0 | 0.00 | 0.00 | 0.00 | 68 | 1013.9 |
| 20260901202809 | 89 | 136 | 1.0 | 8.0 | 0.00 | 0.00 | 0.00 | 69 | 1014.0 |
| 20260901202630 | 89 | 0 | 1.0 | 8.0 | 0.00 | 0.00 | 0.00 | 68 | 1014.0 |
| 20260901202600 | 91 | 133 | 1.0 | 5.0 | 0.00 | 0.00 | 0.00 | 66 | 1014.0 |
| 20260901201859 | 91 | 245 | 1.0 | 5.0 | 0.00 | 0.00 | 0.00 | 65 | 1014.0 |
| 20260901200809 | 90 | 0 | 1.0 | 6.0 | 0.00 | 0.00 | 0.00 | 65 | 1013.9 |
| 20260901200629 | 89 | 190 | 1.0 | 6.0 | 0.00 | 0.00 | 0.00 | 67 | 1013.9 |
| 20260901200106 | 88 | 225 | 0.0 | 4.0 | 0.00 | 0.00 | 0.00 | 68 | 1014.0 |
| 20260901195901 | 88 | 0 | 1.0 | 3.0 | 0.00 | 0.00 | 0.00 | 68 | 1014.0 |
| 20260901194805 | 88 | 0 | 1.0 | 7.0 | 0.00 | 0.00 | 0.00 | 70 | 1014.1 |
| 20260901194629 | 88 | 4 | 2.0 | 7.0 | 0.00 | 0.00 | 0.00 | 69 | 1014.1 |
| 20260901193804 | 90 | 309 | 1.0 | 4.0 | 0.00 | 0.00 | 0.00 | 67 | 1014.2 |
| 20260901193629 | 90 | 327 | 1.0 | 3.0 | 0.00 | 0.00 | 0.00 | 67 | 1014.2 |
| 20260901193238 | 89 | 164 | 1.0 | 5.0 | 0.00 | 0.00 | 0.00 | 68 | 1014.2 |
| 20260901192629 | 89 | 0 | 1.0 | 5.0 | 0.00 | 0.00 | 0.00 | 68 | 1014.2 |
| 20260901191802 | 89 | 51 | 1.0 | 3.0 | 0.00 | 0.00 | 0.00 | 71 | 1014.3 |
| 20260901191630 | 89 | 0 | 1.0 | 5.0 | 0.00 | 0.00 | 0.00 | 69 | 1014.3 |
| 20260901190802 | 90 | 0 | 1.0 | 5.0 | 0.00 | 0.00 | 0.00 | 68 | 1014.1 |
| 20260901190631 | 90 | 313 | 1.0 | 4.0 | 0.00 | 0.00 | 0.00 | 70 | 1014.2 |
| 20260901185800 | 90 | 0 | 1.0 | 5.0 | 0.00 | 0.00 | 0.00 | 65 | 1014.1 |
| 20260901185627 | 90 | 0 | 1.0 | 5.0 | 0.00 | 0.00 | 0.00 | 64 | 1014.1 |
| 20260901184802 | 90 | 153 | 2.0 | 6.0 | 0.00 | 0.00 | 0.00 | 65 | 1014.0 |
| 20260901184626 | 90 | 0 | 2.0 | 6.0 | 0.00 | 0.00 | 0.00 | 65 | 1013.9 |
| 20260901183806 | 89 | 336 | 1.0 | 5.0 | 0.00 | 0.00 | 0.00 | 66 | 1014.0 |
| 20260901183628 | 89 | 0 | 1.0 | 5.0 | 0.00 | 0.00 | 0.00 | 67 | 1014.0 |
| 20260901182801 | 89 | 69 | 4.0 | 8.0 | 0.00 | 0.02 | 0.00 | 66 | 1014.0 |
| 20260901182624 | 89 | 103 | 4.0 | 8.0 | 0.00 | 0.02 | 0.00 | 67 | 1014.0 |
| 20260901182106 | 90 | 318 | 2.0 | 6.0 | 0.00 | 0.02 | 0.00 | 65 | 1014.1 |
| 20260901181859 | 90 | 311 | 2.0 | 7.0 | 0.00 | 0.02 | 0.00 | 65 | 1014.0 |
| 20260901180754 | 89 | 186 | 1.0 | 5.0 | 0.00 | 0.02 | 0.00 | 65 | 1014.0 |
| 20260901180622 | 89 | 139 | 1.0 | 5.0 | 0.00 | 0.02 | 0.00 | 67 | 1014.0 |
| 20260901180233 | 88 | 327 | 2.0 | 6.0 | 0.00 | 0.02 | 0.00 | 67 | 1014.1 |
| 20260901175622 | 88 | 310 | 2.0 | 6.0 | 0.00 | 0.02 | 0.00 | 68 | 1014.1 |
| 20260901175223 | 89 | 0 | 2.0 | 8.0 | 0.00 | 0.02 | 0.00 | 68 | 1014.1 |
| 20260901174624 | 89 | 271 | 2.0 | 8.0 | 0.00 | 0.02 | 0.00 | 66 | 1014.1 |
| 20260901173753 | 89 | 241 | 1.0 | 6.0 | 0.00 | 0.02 | 0.00 | 67 | 1014.1 |
| 20260901173622 | 89 | 295 | 1.0 | 6.0 | 0.00 | 0.02 | 0.00 | 66 | 1014.1 |
| 20260901172753 | 89 | 145 | 1.0 | 4.0 | 0.00 | 0.02 | 0.00 | 68 | 1014.2 |
| 20260901172622 | 89 | 193 | 1.0 | 5.0 | 0.00 | 0.03 | 0.00 | 68 | 1014.2 |
| 20260901171750 | 89 | 326 | 1.0 | 5.0 | 0.00 | 0.03 | 0.00 | 68 | 1014.2 |
| 20260901171620 | 89 | 315 | 1.0 | 4.0 | 0.00 | 0.03 | 0.00 | 69 | 1014.2 |
| 20260901171339 | 88 | 0 | 1.0 | 4.0 | 0.00 | 0.03 | 0.00 | 71 | 1014.2 |
| 20260901171151 | 88 | 0 | 1.0 | 4.0 | 0.00 | 0.03 | 0.00 | 71 | 1014.2 |
| 20260901165747 | 88 | 0 | 1.0 | 4.0 | 0.00 | 0.03 | 0.00 | 68 | 1014.3 |
| 20260901165613 | 88 | 255 | 1.0 | 4.0 | 0.00 | 0.03 | 0.00 | 70 | 1014.3 |
| 20260901164749 | 87 | 174 | 2.0 | 7.0 | 0.00 | 0.03 | 0.00 | 71 | 1014.5 |
| 20260901164613 | 87 | 298 | 2.0 | 7.0 | 0.00 | 0.03 | 0.00 | 71 | 1014.5 |
| 20260901164057 | 88 | 288 | 2.0 | 9.0 | 0.00 | 0.04 | 0.00 | 72 | 1014.6 |
| 20260901163850 | 88 | 289 | 2.0 | 9.0 | 0.00 | 0.04 | 0.00 | 73 | 1014.6 |
| 20260901162747 | 88 | 0 | 1.0 | 8.0 | 0.00 | 0.05 | 0.00 | 72 | 1014.8 |
| 20260901162615 | 88 | 0 | 1.0 | 8.0 | 0.00 | 0.06 | 0.00 | 72 | 1014.7 |
| 20260901161747 | 87 | 0 | 0.0 | 3.0 | 0.00 | 0.06 | 0.00 | 74 | 1014.9 |
| 20260901161613 | 87 | 177 | 0.0 | 3.0 | 0.00 | 0.06 | 0.00 | 74 | 1014.9 |
| 20260901160744 | 87 | 0 | 1.0 | 4.0 | 0.00 | 0.06 | 0.00 | 72 | 1014.9 |
| 20260901160612 | 87 | 197 | 1.0 | 4.0 | 0.00 | 0.06 | 0.00 | 72 | 1014.9 |
| 20260901160046 | 86 | 154 | 1.0 | 4.0 | 0.00 | 0.06 | 0.00 | 74 | 1014.9 |
| 20260901155845 | 86 | 51 | 1.0 | 4.0 | 0.00 | 0.06 | 0.00 | 74 | 1014.9 |
| 20260901155212 | 85 | 161 | 2.0 | 6.0 | 0.00 | 0.06 | 0.00 | 74 | 1014.9 |
| 20260901154612 | 85 | 131 | 2.0 | 6.0 | 0.00 | 0.06 | 0.00 | 76 | 1014.9 |
| 20260901153734 | 85 | 0 | 1.0 | 6.0 | 0.00 | 0.06 | 0.00 | 77 | 1014.9 |
| 20260901153612 | 85 | 0 | 1.0 | 6.0 | 0.00 | 0.06 | 0.00 | 76 | 1014.9 |
| 20260901152734 | 86 | 0 | 0.0 | 4.0 | 0.00 | 0.06 | 0.00 | 74 | 1015.0 |
| 20260901152611 | 86 | 168 | 0.0 | 4.0 | 0.00 | 0.06 | 0.00 | 74 | 1015.0 |
| 20260901151733 | 85 | 0 | 1.0 | 3.0 | 0.00 | 0.06 | 0.00 | 78 | 1015.0 |
| 20260901151613 | 85 | 221 | 1.0 | 3.0 | 0.00 | 0.06 | 0.00 | 77 | 1015.0 |
| 20260901151207 | 85 | 0 | 0.0 | 3.0 | 0.00 | 0.06 | 0.00 | 76 | 1015.0 |
| 20260901150613 | 85 | 0 | 0.0 | 3.0 | 0.00 | 0.06 | 0.00 | 78 | 1015.0 |
| 20260901145730 | 84 | 0 | 1.0 | 3.0 | 0.00 | 0.06 | 0.00 | 78 | 1015.0 |
| 20260901145608 | 84 | 221 | 1.0 | 3.0 | 0.00 | 0.06 | 0.00 | 77 | 1015.0 |
| 20260901145049 | 83 | 89 | 1.0 | 6.0 | 0.00 | 0.06 | 0.00 | 80 | 1015.0 |
| 20260901144835 | 84 | 0 | 1.0 | 6.0 | 0.00 | 0.06 | 0.00 | 77 | 1015.0 |
| 20260901143730 | 83 | 0 | 0.0 | 4.0 | 0.00 | 0.06 | 0.00 | 80 | 1015.1 |
| 20260901143606 | 83 | 331 | 0.0 | 4.0 | 0.00 | 0.06 | 0.00 | 80 | 1015.1 |
| 20260901142729 | 83 | 154 | 1.0 | 4.0 | 0.00 | 0.06 | 0.00 | 78 | 1015.1 |
| 20260901142605 | 83 | 137 | 1.0 | 4.0 | 0.00 | 0.06 | 0.00 | 79 | 1015.1 |
| 20260901141729 | 82 | 0 | 1.0 | 4.0 | 0.00 | 0.06 | 0.00 | 82 | 1014.9 |
| 20260901141602 | 82 | 305 | 1.0 | 4.0 | 0.00 | 0.06 | 0.00 | 81 | 1014.9 |
| 20260901140730 | 81 | 0 | 0.0 | 3.0 | 0.00 | 0.06 | 0.00 | 82 | 1014.9 |
| 20260901140603 | 81 | 0 | 1.0 | 4.0 | 0.00 | 0.06 | 0.00 | 82 | 1014.9 |
| 20260901135730 | 81 | 272 | 1.0 | 5.0 | 0.00 | 0.06 | 0.00 | 82 | 1014.8 |
| 20260901135602 | 81 | 0 | 1.0 | 6.0 | 0.00 | 0.06 | 0.00 | 82 | 1014.8 |
| 20260901135212 | 80 | 0 | 1.0 | 6.0 | 0.00 | 0.06 | 0.00 | 83 | 1014.9 |
| 20260901134600 | 81 | 282 | 1.0 | 6.0 | 0.00 | 0.06 | 0.00 | 81 | 1014.9 |
| 20260901134218 | 80 | 233 | 0.0 | 2.0 | 0.00 | 0.06 | 0.00 | 82 | 1015.1 |
| 20260901133601 | 80 | 83 | 0.0 | 3.0 | 0.00 | 0.06 | 0.00 | 83 | 1015.1 |
| 20260901132730 | 79 | 0 | 0.0 | 4.0 | 0.00 | 0.06 | 0.00 | 84 | 1015.0 |
| 20260901132603 | 79 | 335 | 0.0 | 4.0 | 0.00 | 0.06 | 0.00 | 84 | 1015.0 |
| 20260901131731 | 78 | 0 | 0.0 | 2.0 | 0.00 | 0.06 | 0.00 | 86 | 1014.9 |
| 20260901131601 | 77 | 0 | 0.0 | 2.0 | 0.00 | 0.06 | 0.00 | 87 | 1014.9 |
| 20260901130728 | 76 | 0 | 0.0 | 1.0 | 0.00 | 0.06 | 0.00 | 88 | 1014.9 |
| 20260901130601 | 76 | 0 | 0.0 | 1.0 | 0.00 | 0.06 | 0.00 | 88 | 1014.8 |
| 20260901130034 | 75 | 0 | 0.0 | 2.0 | 0.00 | 0.06 | 0.00 | 91 | 1014.9 |
| 20260901125821 | 75 | 0 | 0.0 | 1.0 | 0.00 | 0.06 | 0.00 | 91 | 1014.9 |
| 20260901125214 | 74 | 152 | 1.0 | 2.0 | 0.00 | 0.06 | 0.00 | 92 | 1014.9 |
| 20260901124602 | 74 | 140 | 1.0 | 2.0 | 0.00 | 0.06 | 0.00 | 92 | 1014.9 |
| 20260901123729 | 73 | 121 | 1.0 | 2.0 | 0.00 | 0.06 | 0.00 | 93 | 1014.9 |
| 20260901123602 | 73 | 156 | 0.0 | 2.0 | 0.00 | 0.06 | 0.00 | 94 | 1014.9 |
| 20260901122730 | 72 | 126 | 0.0 | 2.0 | 0.00 | 0.06 | 0.00 | 96 | 1014.8 |
| 20260901122601 | 72 | 0 | 0.0 | 2.0 | 0.00 | 0.06 | 0.00 | 96 | 1014.8 |
| 20260901122300 | 71 | 0 | 0.0 | 1.0 | 0.00 | 0.06 | 0.00 | 98 | 1014.6 |
| 20260901122101 | 71 | 0 | 0.0 | 0.0 | 0.00 | 0.06 | 0.00 | 98 | 1014.7 |
| 20260901122056 | 71 | 0 | 0.0 | 1.0 | 0.00 | 0.06 | 0.00 | 98 | 1014.6 |
| 20260901120601 | 70 | 0 | 0.0 | 0.0 | 0.00 | 0.06 | 0.00 | 98 | 1014.7 |
| 20260901115730 | 70 | 0 | 0.0 | 0.0 | 0.00 | 0.06 | 0.00 | 98 | 1014.6 |
| 20260901115601 | 70 | 0 | 0.0 | 0.0 | 0.00 | 0.06 | 0.00 | 98 | 1014.6 |
| 20260901114731 | 70 | 0 | 0.0 | 0.0 | 0.00 | 0.06 | 0.00 | 98 | 1014.5 |
| 20260901114601 | 70 | 0 | 0.0 | 0.0 | 0.00 | 0.06 | 0.00 | 98 | 1014.5 |
| 20260901113735 | 70 | 0 | 0.0 | 0.0 | 0.00 | 0.06 | 0.00 | 98 | 1014.5 |
| 20260901113601 | 70 | 0 | 0.0 | 0.0 | 0.00 | 0.06 | 0.00 | 98 | 1014.5 |
| 20260901112731 | 70 | 0 | 0.0 | 0.0 | 0.00 | 0.06 | 0.00 | 98 | 1014.5 |
| 20260901112601 | 70 | 0 | 0.0 | 0.0 | 0.00 | 0.06 | 0.00 | 98 | 1014.5 |
| 20260901112040 | 70 | 0 | 0.0 | 0.0 | 0.00 | 0.06 | 0.00 | 98 | 1014.4 |
| 20260901111825 | 70 | 0 | 0.0 | 0.0 | 0.00 | 0.06 | 0.00 | 98 | 1014.4 |
| 20260901110731 | 70 | 0 | 0.0 | 0.0 | 0.00 | 0.06 | 0.00 | 97 | 1014.3 |
| 20260901110601 | 70 | 0 | 0.0 | 0.0 | 0.00 | 0.06 | 0.00 | 97 | 1014.3 |
| 20260901105731 | 70 | 0 | 0.0 | 0.0 | 0.00 | 0.06 | 0.00 | 97 | 1014.2 |
| 20260901105601 | 70 | 0 | 0.0 | 0.0 | 0.00 | 0.06 | 0.00 | 97 | 1014.2 |
| 20260901104730 | 71 | 0 | 0.0 | 0.0 | 0.00 | 0.06 | 0.00 | 97 | 1014.2 |
| 20260901104607 | 71 | 0 | 0.0 | 0.0 | 0.00 | 0.06 | 0.00 | 97 | 1014.2 |
| 20260901104217 | 71 | 0 | 0.0 | 3.0 | 0.00 | 0.06 | 0.00 | 97 | 1014.2 |
| 20260901103603 | 71 | 0 | 0.0 | 3.0 | 0.00 | 0.06 | 0.00 | 97 | 1014.1 |
| 20260901103256 | 71 | 0 | 0.0 | 0.0 | 0.00 | 0.06 | 0.00 | 97 | 1014.2 |
| 20260901103053 | 71 | 0 | 0.0 | 3.0 | 0.00 | 0.06 | 0.00 | 97 | 1014.1 |
| 20260901101730 | 71 | 279 | 1.0 | 3.0 | 0.00 | 0.06 | 0.00 | 97 | 1014.1 |
| 20260901101603 | 71 | 297 | 0.0 | 3.0 | 0.00 | 0.06 | 0.00 | 97 | 1014.1 |
| 20260901100730 | 71 | 0 | 0.0 | 0.0 | 0.00 | 0.06 | 0.00 | 97 | 1013.9 |
| 20260901100602 | 71 | 0 | 0.0 | 0.0 | 0.00 | 0.06 | 0.00 | 97 | 1013.9 |
| 20260901100539 | 71 | 83 | 0.0 | 1.0 | 0.00 | 0.06 | 0.00 | 96 | 1014.0 |
| 20260901100328 | 71 | 0 | 0.0 | 2.0 | 0.00 | 0.06 | 0.00 | 96 | 1013.9 |
| 20260901100056 | 71 | 0 | 0.0 | 2.0 | 0.00 | 0.06 | 0.00 | 96 | 1013.9 |
| 20260901094958 | 71 | 302 | 0.0 | 3.0 | 0.00 | 0.06 | 0.00 | 95 | 1014.1 |
| 20260901094641 | 71 | 180 | 0.0 | 1.0 | 0.00 | 0.06 | 0.00 | 96 | 1014.0 |
| 20260901093740 | 71 | 0 | 0.0 | 0.0 | 0.00 | 0.06 | 0.00 | 96 | 1014.0 |
| 20260901093729 | 71 | 0 | 0.0 | 2.0 | 0.00 | 0.06 | 0.00 | 96 | 1014.0 |
| 20260901092821 | 71 | 0 | 0.0 | 2.0 | 0.00 | 0.06 | 0.00 | 95 | 1014.1 |
| 20260901092217 | 71 | 0 | 0.0 | 3.0 | 0.00 | 0.06 | 0.00 | 95 | 1014.1 |
| 20260901091602 | 71 | 200 | 0.0 | 3.0 | 0.00 | 0.06 | 0.00 | 95 | 1014.0 |
| 20260901090732 | 72 | 0 | 0.0 | 2.0 | 0.00 | 0.06 | 0.00 | 95 | 1013.9 |
| 20260901090608 | 72 | 99 | 0.0 | 2.0 | 0.00 | 0.06 | 0.00 | 95 | 1013.7 |
| 20260901090602 | 72 | 94 | 0.0 | 2.0 | 0.00 | 0.06 | 0.00 | 95 | 1013.9 |
| 20260901085900 | 72 | 0 | 0.0 | 2.0 | 0.00 | 0.06 | 0.00 | 95 | 1013.9 |
| 20260901085602 | 72 | 0 | 0.0 | 2.0 | 0.00 | 0.06 | 0.00 | 95 | 1013.9 |
| 20260901084601 | 72 | 0 | 0.0 | 2.0 | 0.00 | 0.06 | 0.00 | 95 | 1013.7 |
| 20260901083721 | 72 | 0 | 1.0 | 2.0 | 0.00 | 0.06 | 0.00 | 95 | 1013.6 |
| 20260901083603 | 72 | 0 | 0.0 | 2.0 | 0.00 | 0.06 | 0.00 | 95 | 1013.6 |
| 20260901082716 | 72 | 0 | 0.0 | 2.0 | 0.00 | 0.06 | 0.00 | 95 | 1013.5 |
| 20260901082603 | 72 | 0 | 0.0 | 2.0 | 0.00 | 0.06 | 0.00 | 95 | 1013.5 |
| 20260901081716 | 72 | 50 | 0.0 | 2.0 | 0.00 | 0.06 | 0.00 | 95 | 1013.6 |
| 20260901081603 | 72 | 0 | 0.0 | 2.0 | 0.00 | 0.06 | 0.00 | 95 | 1013.6 |
| 20260901080717 | 72 | 0 | 0.0 | 3.0 | 0.00 | 0.06 | 0.00 | 95 | 1013.7 |
| 20260901080604 | 72 | 0 | 0.0 | 3.0 | 0.00 | 0.06 | 0.00 | 95 | 1013.7 |
| 20260901080039 | 72 | 116 | 0.0 | 2.0 | 0.00 | 0.06 | 0.00 | 95 | 1013.5 |
| 20260901075826 | 72 | 0 | 0.0 | 2.0 | 0.00 | 0.06 | 0.00 | 95 | 1013.5 |
| 20260901075139 | 72 | 0 | 0.0 | 2.0 | 0.00 | 0.06 | 0.00 | 94 | 1013.5 |
| 20260901074607 | 72 | 142 | 0.0 | 2.0 | 0.00 | 0.06 | 0.00 | 94 | 1013.5 |
| 20260901073703 | 72 | 0 | 0.0 | 2.0 | 0.00 | 0.06 | 0.00 | 94 | 1013.6 |
| 20260901073602 | 72 | 0 | 0.0 | 2.0 | 0.00 | 0.06 | 0.00 | 94 | 1013.6 |
| 20260901072704 | 72 | 226 | 0.0 | 2.0 | 0.00 | 0.06 | 0.00 | 94 | 1013.6 |
| 20260901072549 | 72 | 149 | 0.0 | 2.0 | 0.00 | 0.06 | 0.00 | 94 | 1013.6 |
| 20260901071704 | 72 | 0 | 0.0 | 2.0 | 0.00 | 0.06 | 0.00 | 93 | 1013.7 |
| 20260901071549 | 72 | 0 | 0.0 | 2.0 | 0.00 | 0.06 | 0.00 | 93 | 1013.7 |
| 20260901070649 | 72 | 0 | 0.0 | 2.0 | 0.00 | 0.06 | 0.00 | 93 | 1013.7 |
| 20260901070550 | 72 | 0 | 0.0 | 2.0 | 0.00 | 0.06 | 0.00 | 93 | 1013.7 |
| 20260901065650 | 72 | 0 | 0.0 | 2.0 | 0.00 | 0.06 | 0.00 | 94 | 1013.8 |
| 20260901065549 | 72 | 0 | 0.0 | 2.0 | 0.00 | 0.06 | 0.00 | 94 | 1013.8 |
| 20260901064636 | 72 | 0 | 0.0 | 1.0 | 0.00 | 0.06 | 0.00 | 93 | 1013.7 |
| 20260901064536 | 72 | 0 | 0.0 | 1.0 | 0.00 | 0.06 | 0.00 | 93 | 1013.7 |
| 20260901063632 | 73 | 0 | 0.0 | 0.0 | 0.00 | 0.06 | 0.00 | 93 | 1013.7 |
| 20260901063531 | 73 | 0 | 0.0 | 0.0 | 0.00 | 0.06 | 0.00 | 92 | 1013.7 |
| 20260901062632 | 73 | 0 | 0.0 | 2.0 | 0.00 | 0.06 | 0.00 | 91 | 1013.8 |
| 20260901062531 | 73 | 0 | 0.0 | 2.0 | 0.00 | 0.06 | 0.00 | 91 | 1013.8 |
| 20260901061630 | 73 | 209 | 0.0 | 2.0 | 0.00 | 0.06 | 0.00 | 91 | 1013.8 |
| 20260901061530 | 73 | 0 | 0.0 | 2.0 | 0.00 | 0.06 | 0.00 | 91 | 1013.8 |
| 20260901060743 | 73 | 194 | 0.0 | 2.0 | 0.00 | 0.06 | 0.00 | 90 | 1013.9 |
| 20260901060630 | 73 | 228 | 0.0 | 2.0 | 0.00 | 0.06 | 0.00 | 90 | 1013.8 |
| 20260901060540 | 73 | 244 | 0.0 | 2.0 | 0.00 | 0.06 | 0.00 | 90 | 1013.9 |
| 20260901060534 | 73 | 228 | 0.0 | 2.0 | 0.00 | 0.06 | 0.00 | 90 | 1013.8 |
| 20260901055225 | 74 | 208 | 0.0 | 1.0 | 0.00 | 0.06 | 0.00 | 90 | 1014.0 |
| 20260901055033 | 74 | 0 | 0.0 | 1.0 | 0.00 | 0.06 | 0.00 | 90 | 1014.0 |
| 20260901054005 | 74 | 0 | 0.0 | 2.0 | 0.00 | 0.06 | 0.00 | 89 | 1014.1 |
| 20260901053750 | 74 | 0 | 0.0 | 2.0 | 0.00 | 0.06 | 0.00 | 89 | 1014.1 |
| 20260901053108 | 74 | 0 | 0.0 | 1.0 | 0.00 | 0.06 | 0.00 | 89 | 1014.2 |
| 20260901052530 | 74 | 0 | 0.0 | 1.0 | 0.00 | 0.06 | 0.00 | 89 | 1014.2 |
| 20260901051634 | 74 | 0 | 0.0 | 1.0 | 0.00 | 0.06 | 0.00 | 88 | 1014.2 |
| 20260901051530 | 74 | 0 | 0.0 | 1.0 | 0.00 | 0.06 | 0.00 | 88 | 1014.2 |
| 20260901050631 | 74 | 0 | 0.0 | 2.0 | 0.00 | 0.06 | 0.00 | 88 | 1014.2 |
| 20260901050540 | 74 | 0 | 1.0 | 2.0 | 0.00 | 0.06 | 0.00 | 88 | 1014.1 |
| 20260901050531 | 74 | 0 | 0.0 | 2.0 | 0.00 | 0.06 | 0.00 | 88 | 1014.2 |
| 20260901045530 | 74 | 0 | 1.0 | 2.0 | 0.00 | 0.06 | 0.00 | 88 | 1014.1 |
| 20260901045009 | 74 | 227 | 0.0 | 2.0 | 0.00 | 0.06 | 0.00 | 88 | 1014.0 |
| 20260901044753 | 74 | 242 | 0.0 | 2.0 | 0.00 | 0.06 | 0.00 | 88 | 1014.0 |
| 20260901043630 | 74 | 211 | 0.0 | 3.0 | 0.00 | 0.06 | 0.00 | 87 | 1014.1 |
| 20260901043534 | 74 | 0 | 0.0 | 3.0 | 0.00 | 0.06 | 0.00 | 87 | 1014.1 |
| 20260901042630 | 73 | 157 | 0.0 | 2.0 | 0.00 | 0.06 | 0.00 | 88 | 1014.1 |
| 20260901042530 | 73 | 0 | 0.0 | 2.0 | 0.00 | 0.06 | 0.00 | 88 | 1014.1 |
| 20260901042004 | 74 | 149 | 0.0 | 2.0 | 0.00 | 0.06 | 0.00 | 87 | 1013.9 |
| 20260901041748 | 74 | 149 | 0.0 | 2.0 | 0.00 | 0.06 | 0.00 | 87 | 1013.9 |
| 20260901040621 | 73 | 0 | 0.0 | 3.0 | 0.00 | 0.06 | 0.00 | 87 | 1014.0 |
| 20260901040521 | 73 | 0 | 0.0 | 3.0 | 0.00 | 0.06 | 0.00 | 87 | 1014.1 |
| 20260901035621 | 73 | 246 | 0.0 | 2.0 | 0.00 | 0.06 | 0.06 | 87 | 1014.0 |
| 20260901035522 | 73 | 141 | 0.0 | 2.0 | 0.00 | 0.06 | 0.06 | 87 | 1014.0 |
| 20260901035103 | 73 | 0 | 1.0 | 4.0 | 0.00 | 0.06 | 0.06 | 87 | 1014.1 |
| 20260901034523 | 73 | 170 | 1.0 | 4.0 | 0.00 | 0.06 | 0.06 | 87 | 1014.1 |
| 20260901034104 | 72 | 0 | 0.0 | 3.0 | 0.00 | 0.06 | 0.06 | 87 | 1014.2 |
| 20260901033522 | 72 | 0 | 0.0 | 3.0 | 0.00 | 0.06 | 0.06 | 87 | 1014.2 |
| 20260901033055 | 72 | 0 | 0.0 | 2.0 | 0.00 | 0.06 | 0.06 | 86 | 1014.2 |
| 20260901032522 | 72 | 271 | 0.0 | 2.0 | 0.00 | 0.06 | 0.06 | 86 | 1014.2 |